TimeChST,TemperatureF,Dew PointF,Humidity,Sea Level PressureIn,VisibilityMPH,Wind Direction,Wind SpeedMPH,Gust SpeedMPH,PrecipitationIn,Events,Conditions,WindDirDegrees,DateUTC
12:54 AM,81.0,73.0,77,29.97,10.0,NE,8.1,-,0.01,,Overcast,50,2012-10-31 14:54:00
1:54 AM,81.0,73.0,77,29.96,10.0,ENE,10.4,-,0.00,,Overcast,60,2012-10-31 15:54:00
2:54 AM,80.1,72.0,76,29.95,10.0,NNE,4.6,-,N/A,,Scattered Clouds,20,2012-10-31 16:54:00
3:54 AM,80.1,72.0,76,29.95,10.0,NE,6.9,-,N/A,,Mostly Cloudy,40,2012-10-31 17:54:00
4:54 AM,79.0,71.1,77,29.95,10.0,NE,9.2,-,N/A,,Scattered Clouds,40,2012-10-31 18:54:00
5:54 AM,80.1,71.1,74,29.96,10.0,NE,9.2,-,N/A,,Scattered Clouds,50,2012-10-31 19:54:00
6:54 AM,80.1,71.1,74,29.99,10.0,NE,6.9,-,N/A,,Scattered Clouds,50,2012-10-31 20:54:00
7:54 AM,82.9,72.0,69,30.01,10.0,NE,12.7,-,N/A,,Scattered Clouds,50,2012-10-31 21:54:00
8:54 AM,84.9,70.0,61,30.02,10.0,NE,11.5,-,N/A,,Partly Cloudy,50,2012-10-31 22:54:00
9:54 AM,86.0,71.1,61,30.02,10.0,ENE,16.1,-,N/A,,Partly Cloudy,60,2012-10-31 23:54:00
10:54 AM,87.1,71.1,59,30.01,10.0,ENE,13.8,-,N/A,,Scattered Clouds,60,2012-11-01 00:54:00
11:54 AM,87.1,70.0,57,29.97,10.0,ENE,17.3,-,N/A,,Scattered Clouds,60,2012-11-01 01:54:00
12:54 PM,87.1,71.1,59,29.94,10.0,ENE,17.3,-,N/A,,Partly Cloudy,60,2012-11-01 02:54:00
1:54 PM,87.1,71.1,59,29.92,10.0,ENE,12.7,-,N/A,,Partly Cloudy,60,2012-11-01 03:54:00
2:54 PM,84.9,71.1,63,29.91,10.0,ENE,12.7,-,N/A,,Scattered Clouds,60,2012-11-01 04:54:00
3:54 PM,84.9,70.0,61,29.91,10.0,NE,12.7,-,N/A,,Partly Cloudy,50,2012-11-01 05:54:00
4:54 PM,84.0,69.1,61,29.91,10.0,NE,12.7,-,N/A,,Scattered Clouds,50,2012-11-01 06:54:00
5:19 PM,82.4,68.0,62,29.85,2.5,NE,12.7,-,N/A,,Haze,50,2012-11-01 07:19:00
5:28 PM,82.4,68.0,62,29.86,10.0,NE,11.5,-,N/A,,Partly Cloudy,50,2012-11-01 07:28:00
5:54 PM,81.0,68.0,65,29.92,10.0,NE,12.7,19.6,N/A,,Partly Cloudy,50,2012-11-01 07:54:00
6:54 PM,81.0,69.1,67,29.94,10.0,ENE,13.8,-,N/A,,Scattered Clouds,60,2012-11-01 08:54:00
7:54 PM,81.0,70.0,69,29.96,10.0,ENE,12.7,-,N/A,,Partly Cloudy,60,2012-11-01 09:54:00
8:54 PM,81.0,70.0,69,29.96,10.0,ENE,12.7,-,N/A,,Scattered Clouds,60,2012-11-01 10:54:00
9:54 PM,81.0,69.1,67,29.97,10.0,ENE,13.8,-,N/A,,Partly Cloudy,60,2012-11-01 11:54:00
10:54 PM,81.0,69.1,67,29.98,10.0,ENE,10.4,-,N/A,,Scattered Clouds,70,2012-11-01 12:54:00
11:54 PM,81.0,69.1,67,29.97,10.0,NE,12.7,-,N/A,,Scattered Clouds,40,2012-11-01 13:54:00